Chester, CT

7:48 AM EDT on April 27, 2017 (GMT -0400)
Chester

Weather History for KSNC - October, 2013

Change the Weather History Date:

Thursday, October 17, 2013

  Actual Average (KHVN) Record (KHVN)
Temperature  
Mean Temperature 63 °F -  
Max Temperature 69 °F 59 °F 78 °F (1980)
Min Temperature 57 °F 43 °F 33 °F (1978)
Degree Days  
Heating Degree Days 2    
Growing Degree Days 13 (Base 50)    
Moisture  
Dew Point 61 °F    
Average Humidity 94    
Maximum Humidity 100    
Minimum Humidity 68    
Precipitation  
Precipitation 0.01 in - - ()
Sea Level Pressure  
Sea Level Pressure 29.85 in    
Wind  
Wind Speed 4 mph (SSW)    
Max Wind Speed 10 mph    
Max Gust Speed -    
Visibility 7 miles    
Events Rain    
Averages and records for this station are not official NWS values.
T = Trace of Precipitation, MM = Missing Value Source: NWS Daily Summary

Daily Weather History Graph

Daily Weather History Graph

Search for Another Location

Airport or City:

Trip Planner

Search our weather history database for the weather conditions in past years. The results will help you decide how hot, cold, wet, or windy it might be!

Date:

Astronomy

Oct. 17, 2013 Rise Set
Actual Time 7:04 AM EDT 6:05 PM EDT
Civil Twilight 6:36 AM EDT 6:33 PM EDT
Nautical Twilight 6:04 AM EDT 7:05 PM EDT
Astronomical Twilight 5:32 AM EDT 7:37 PM EDT
Moon 5:18 PM EDT (10/17) 5:32 AM EDT (10/17)
Length of Visible Light 11h 57m
Length of Day
11h 01m
Waxing Gibbous, 98% of the Moon is Illuminated
Oct 17
Waxing Gibbous
Oct 18
Full
Oct 26
Last Quarter
Nov 3
New
Nov 10
First Quarter

Hourly Weather History & Observations

Time (EDT) Temp. Dew Point Humidity Pressure Visibility Wind Dir Wind Speed Gust Speed Precip Events Conditions
12:15 AM 59.0 °F 59.0 °F 100% 29.93 in 10.0 mi South 3.5 mph - N/A   Overcast
12:35 AM 57.2 °F 57.2 °F 100% 29.93 in 10.0 mi Calm Calm - N/A   Overcast
12:55 AM 60.8 °F 60.8 °F 100% 29.93 in 7.0 mi SW 3.5 mph - N/A   Overcast
1:15 AM 60.8 °F 60.8 °F 100% 29.92 in 8.0 mi WSW 3.5 mph - N/A   Overcast
1:35 AM 60.8 °F 60.8 °F 100% 29.92 in 6.0 mi Calm Calm - N/A   Overcast
1:55 AM 60.8 °F 60.8 °F 100% 29.93 in 6.0 mi SW 3.5 mph - N/A   Overcast
2:15 AM 60.8 °F 60.8 °F 100% 29.92 in 6.0 mi SW 3.5 mph - N/A   Overcast
2:35 AM 60.8 °F 60.8 °F 100% 29.91 in 5.0 mi SW 3.5 mph - N/A   Overcast
2:55 AM 60.8 °F 60.8 °F 100% 29.91 in 5.0 mi WSW 3.5 mph - N/A   Overcast
3:15 AM 60.8 °F 60.8 °F 100% 29.91 in 7.0 mi WSW 3.5 mph - N/A   Overcast
3:35 AM 60.8 °F 60.8 °F 100% 29.90 in 7.0 mi Calm Calm - N/A   Overcast
3:55 AM 60.8 °F 60.8 °F 100% 29.89 in 7.0 mi SW 4.6 mph - N/A   Overcast
4:15 AM 60.8 °F 60.8 °F 100% 29.89 in 8.0 mi SW 3.5 mph - N/A   Overcast
4:35 AM 60.8 °F 60.8 °F 100% 29.89 in 9.0 mi Calm Calm - N/A   Overcast
4:55 AM 60.8 °F 60.8 °F 100% 29.89 in 9.0 mi Calm Calm - N/A   Overcast
5:15 AM 60.8 °F 60.8 °F 100% 29.90 in 10.0 mi SW 3.5 mph - N/A   Overcast
5:35 AM 60.8 °F 60.8 °F 100% 29.90 in 10.0 mi Calm Calm - N/A   Overcast
5:55 AM 60.8 °F 60.8 °F 100% 29.90 in 10.0 mi Calm Calm - N/A   Overcast
6:15 AM 60.8 °F 60.8 °F 100% 29.90 in 10.0 mi South 3.5 mph - N/A   Overcast
6:35 AM 60.8 °F 60.8 °F 100% 29.89 in 8.0 mi South 3.5 mph - N/A   Overcast
6:55 AM 60.8 °F 60.8 °F 100% 29.89 in 8.0 mi South 4.6 mph - N/A   Overcast
7:15 AM 60.8 °F 60.8 °F 100% 29.89 in 6.0 mi SSW 4.6 mph - N/A   Overcast
7:35 AM 60.8 °F 60.8 °F 100% 29.89 in 5.0 mi South 4.6 mph - N/A   Overcast
7:55 AM 60.8 °F 60.8 °F 100% 29.90 in 5.0 mi SW 3.5 mph - N/A   Overcast
8:15 AM 60.8 °F 60.8 °F 100% 29.90 in 5.0 mi SW 3.5 mph - N/A   Overcast
8:35 AM 60.8 °F 60.8 °F 100% 29.90 in 2.5 mi WSW 4.6 mph - N/A   Overcast
8:55 AM 60.8 °F 60.8 °F 100% 29.91 in 3.0 mi WSW 3.5 mph - N/A   Overcast
9:35 AM 62.6 °F 60.8 °F 94% 29.91 in 5.0 mi SW 9.2 mph - N/A   Overcast
9:55 AM 62.6 °F 60.8 °F 94% 29.90 in 8.0 mi WSW 5.8 mph - N/A   Mostly Cloudy
10:15 AM 62.6 °F 60.8 °F 94% 29.90 in 8.0 mi SW 4.6 mph - N/A   Overcast
10:35 AM 64.4 °F 60.8 °F 88% 29.90 in 9.0 mi SW 5.8 mph - N/A   Overcast
10:55 AM 64.4 °F 60.8 °F 88% 29.89 in 8.0 mi SW 3.5 mph - N/A   Overcast
11:15 AM 64.4 °F 60.8 °F 88% 29.89 in 9.0 mi SW 5.8 mph - N/A   Overcast
11:35 AM 64.4 °F 60.8 °F 88% 29.89 in 9.0 mi WSW 3.5 mph - N/A   Overcast
11:55 AM 64.4 °F 60.8 °F 88% 29.89 in 9.0 mi SW 5.8 mph - N/A   Overcast
12:15 PM 64.4 °F 60.8 °F 88% 29.89 in 7.0 mi SW 3.5 mph - N/A   Overcast
12:35 PM 64.4 °F 60.8 °F 88% 29.87 in 6.0 mi SW 5.8 mph - N/A   Overcast
12:55 PM 64.4 °F 62.6 °F 94% 29.87 in 7.0 mi SW 4.6 mph - N/A   Overcast
1:15 PM 64.4 °F 62.6 °F 94% 29.86 in 6.0 mi SW 5.8 mph - N/A   Overcast
1:35 PM 66.2 °F 60.8 °F 83% 29.85 in 7.0 mi WSW 4.6 mph - N/A   Overcast
1:55 PM 66.2 °F 60.8 °F 83% 29.84 in 8.0 mi SW 5.8 mph - N/A   Mostly Cloudy
2:15 PM 66.2 °F 60.8 °F 83% 29.84 in 8.0 mi WSW 4.6 mph - N/A   Overcast
2:35 PM 66.2 °F 60.8 °F 83% 29.83 in 9.0 mi SW 4.6 mph - N/A   Mostly Cloudy
2:55 PM 66.2 °F 60.8 °F 83% 29.83 in 9.0 mi SSW 4.6 mph - N/A   Overcast
3:15 PM 66.2 °F 60.8 °F 83% 29.83 in 9.0 mi SSW 6.9 mph - N/A   Mostly Cloudy
3:35 PM 69.8 °F 60.8 °F 73% 29.82 in 9.0 mi SW 5.8 mph - N/A   Partly Cloudy
3:55 PM 69.8 °F 59.0 °F 68% 29.82 in 10.0 mi SW 5.8 mph - N/A   Clear
4:15 PM 69.8 °F 59.0 °F 68% 29.80 in 10.0 mi South 4.6 mph - N/A   Clear
4:35 PM 69.8 °F 59.0 °F 68% 29.81 in 10.0 mi West 3.5 mph - N/A   Clear
4:55 PM 69.8 °F 59.0 °F 68% 29.81 in 10.0 mi SW 4.6 mph - N/A   Clear
5:15 PM 66.2 °F 60.8 °F 83% 29.81 in 10.0 mi South 5.8 mph - N/A   Clear
5:35 PM 64.4 °F 60.8 °F 88% 29.81 in 9.0 mi South 4.6 mph - N/A   Partly Cloudy
5:55 PM 64.4 °F 60.8 °F 88% 29.80 in 8.0 mi SSE 3.5 mph - N/A   Partly Cloudy
6:15 PM 62.6 °F 60.8 °F 94% 29.79 in 8.0 mi South 3.5 mph - N/A   Clear
6:35 PM 62.6 °F 60.8 °F 94% 29.80 in 7.0 mi SSE 3.5 mph - N/A   Clear
6:55 PM 60.8 °F 60.8 °F 100% 29.80 in 7.0 mi South 3.5 mph - N/A   Clear
7:15 PM 60.8 °F 60.8 °F 100% 29.79 in 5.0 mi SSE 4.6 mph - N/A   Scattered Clouds
7:35 PM 60.8 °F 60.8 °F 100% 29.79 in 4.0 mi SSE 4.6 mph - N/A   Mostly Cloudy
7:55 PM 60.8 °F 60.8 °F 100% 29.79 in 3.0 mi South 6.9 mph - N/A   Mostly Cloudy
8:15 PM 62.6 °F 62.6 °F 100% 29.79 in 2.5 mi South 6.9 mph - N/A   Overcast
8:35 PM 60.8 °F 60.8 °F 100% 29.78 in 2.5 mi South 5.8 mph - N/A   Overcast
8:55 PM 60.8 °F 60.8 °F 100% 29.79 in 3.0 mi South 4.6 mph - N/A   Overcast
9:15 PM 60.8 °F 60.8 °F 100% 29.79 in 3.0 mi South 9.2 mph - N/A   Overcast
9:35 PM 60.8 °F 60.8 °F 100% 29.79 in 2.5 mi SSW 8.1 mph - N/A   Overcast
9:55 PM 60.8 °F 60.8 °F 100% 29.78 in 2.5 mi South 8.1 mph - N/A Rain Light Rain
10:15 PM 60.8 °F 60.8 °F 100% 29.78 in 3.0 mi SSW 6.9 mph - N/A Rain Light Rain
10:35 PM 60.8 °F 60.8 °F 100% 29.77 in 2.5 mi South 6.9 mph - 0.01 in Rain Light Rain
10:55 PM 62.6 °F 62.6 °F 100% 29.76 in 3.0 mi SSW 9.2 mph - 0.01 in   Overcast
11:15 PM 62.6 °F 62.6 °F 100% 29.76 in 4.0 mi SSW 10.4 mph - N/A   Overcast
11:35 PM 62.6 °F 62.6 °F 100% 29.75 in 4.0 mi SSW 6.9 mph - N/A   Overcast
11:55 PM 62.6 °F 62.6 °F 100% 29.74 in 4.0 mi South 8.1 mph - N/A   Overcast